Tracking 29493 objects as of 8-Sep-2024
HD Live streaming from Space Station
objects crossing your sky now

GALILEO 27 (223)

Track GALILEO 27 (223) now!
GALILEO 27 (223) is classified as:


NORAD ID: 49809
Int'l Code: 2021-117A
Perigee: 23,218.9 km
Apogee: 23,239.2 km
Inclination: 57.3 °
Period: 844.7 minutes
Semi major axis: 29600 km
RCS: Unknown
Launch date: December 5, 2021
Source: France (FR)
Launch site: FRENCH GUIANA (FRGUI)
Your satellite tracking list
Your tracking list is empty




NASA's NSSDC Master Catalog

Two Line Element Set (TLE):
1 49809U 21116A   24248.47254359 -.00000102  00000-0  00000-0 0  9994
2 49809  57.2954 359.2341 0003436 195.1125 166.9074  1.70476517 17099
Source of the keplerian elements: AFSPC